Location: Arrington
(35.8681°N, 86.7092°W)
Time: 14:13:43
(UTC+00:00)

ALOS - Pass Details

Date: 23 November 2019
Orbit: 683 x 686 km, 97.8° (Epoch: 09 December)

Event Time Altitude Azimuth Distance (km) Brightness Sun altitude
Rises 10:26:21 0° 24° (NNE) 3,052 5.8 -25.0°
Reaches altitude 10° 10:28:50 10° 35° (NE) 2,133 5.1 -24.5°
Maximum altitude 10:32:56 30° 97° (E) 1,214 4.2 -23.6°
Drops below altitude 10° 10:37:01 10° 158° (SSE) 2,121 5.2 -22.8°
Sets 10:39:28 0° 169° (S) 3,032 5.9 -22.3°
